Location: Unspecified
(44.4377°N, 88.0525°W)
Time: 03:43:27
(UTC-05:00)

ISS - Visible Passes

Search period start: 24 March 2023 00:00
Search period end: 03 April 2023 00:00
Orbit: 414 x 422 km, 51.6° (Epoch: 24 March)

Date Brightness Start Highest point End Pass type
(mag) Time Alt. Az. Time Alt. Az. Time Alt. Az.
24 Mar -1.8 20:29:55 10° NW 20:32:40 23° N 20:34:30 15° NE visible
24 Mar -0.5 22:06:50 10° NW 22:07:26 14° NW 22:07:26 14° NW visible
25 Mar -1.8 19:41:48 10° WNW 19:44:35 23° N 19:47:21 10° NE visible
25 Mar -2.2 21:18:57 10° NW 21:21:27 30° N 21:21:27 30° N visible
26 Mar -2.2 20:31:01 10° NW 20:33:56 27° NNE 20:35:25 19° NE visible
26 Mar -0.6 22:07:41 10° WNW 22:08:21 15° WNW 22:08:21 15° WNW visible
27 Mar -2.0 19:42:58 10° NW 19:45:47 24° N 19:48:35 10° ENE visible
27 Mar -2.8 21:19:43 10° NW 21:22:18 44° NNW 21:22:18 44° NNW visible
28 Mar -3.0 20:31:45 10° NW 20:34:57 40° NNE 20:36:15 27° ENE visible
28 Mar -0.6 22:08:36 10° WNW 22:09:11 14° WNW 22:09:11 14° WNW visible
29 Mar -2.5 19:43:44 10° NW 19:46:47 31° NNE 19:49:50 10° E visible
29 Mar -3.0 21:20:25 10° WNW 21:23:08 49° W 21:23:08 49° W visible
30 Mar -3.8 20:32:19 10° WNW 20:35:41 84° NNE 20:37:05 32° ESE visible
31 Mar -3.4 19:44:13 10° NW 19:47:32 55° NNE 19:50:49 10° ESE visible
31 Mar -1.9 21:21:22 10° W 21:24:00 23° SW 21:24:00 23° SW visible
01 Apr -2.7 20:32:56 10° WNW 20:36:04 38° SW 20:38:02 19° SSE visible
